Other Public Products
Issued by NWS Grand Forks, ND

Home | Current Version | Previous Version | Graphics & Text | Print | Product List | Glossary On
Versions: 1 2 3 4 5 6 7 8 9 10 11 12 13 14 15 16 17 18 19 20 21 22 23 24 25 26 27 28 29 30 31 32 33 34 35 36 37 38 39 40 41 42 43 44 45 46 47 48 49 50
000
FPUS83 KFGF 282131
OPUFGF
PRAIRIE TO PINES WEATHER ROUNDUP
NATIONAL WEATHER SERVICE EASTERN NORTH DAKOTA/GRAND FORKS ND
400 PM CDT THU JUL 28 2016

 **SATELLITE DATA USED TO AUGMENT SKY COVER AT AUTOMATED STATIONS**
 *****  WEATHER ACROSS EASTERN NORTH DAKOTA  *****

CITY           SKY/WX    TMP DP  RH WIND       PRES   REMARKS
GRAND FORKS    MOSUNNY   77  57  50 N8        30.10F
GRAND FORKS AF NOT AVBL
GRAND CITY NWS   N/A     77 N/A N/A N9          N/A
BUXTON           N/A     76  62  60 N7          N/A
DEVILS LAKE    PTSUNNY   71  57  61 CALM      30.15S
FARGO          MOSUNNY   81  61  50 N6        30.07S
WAHPETON ARPT  CLOUDY    75  55  50 CALM      30.06F
$$

 *****  WEATHER ACROSS CENTRAL AND WESTERN NORTH DAKOTA  *****

CITY           SKY/WX    TMP DP  RH WIND       PRES   REMARKS
JAMESTOWN      CLOUDY    74  62  66 NE8       30.09F
BISMARCK       CLOUDY    74  56  53 NE5       30.12F
MINOT          PTSUNNY   78  52  40 NE9       30.13F
MINOT AFB      NOT AVBL
GARRISON         N/A     70  55  59 NE6       30.15F
WILLISTON      MOSUNNY   77  51  40 NE6       30.14F
DICKINSON      CLOUDY    65  58  78 E9        30.14F
HETTINGER      PTSUNNY   72  59  63 NE12      30.14F
$$

 *****  OTHER OBSERVATIONS NORTHEAST NORTH DAKOTA  *****

CITY           SKY/WX    TMP DP  RH WIND       PRES   REMARKS
WALHALLA       FAIR      72  68  88 NE5       30.13F
LANGDON        FAIR      73  54  49 NW7       30.15F
CAVALIER       FAIR      73  55  53 N7        30.13S
GRAFTON        FAIR      73  55  53 N9        30.13F
CANDO          MOCLDY    73  55  53 NE5       30.16F
FORT TOTTEN    NOT AVBL
ROLLA            N/A     70  52  52 E6        30.17F
RUGBY          NOT AVBL
 ***** THE ABOVE OBSERVATIONS ARE NON NWS ARE NOT QUALITY
        CONTROLLED AND MAY MIS-REPORT RAIN FOR SNOW...
$$

 *****  OTHER OBSERVATIONS SOUTHEAST NORTH DAKOTA *****

CITY           SKY/WX    TMP DP  RH WIND       PRES   REMARKS
COOPERSTOWN    NOT AVBL
VALLEY CITY    MOCLDY    75  63  64 NE7       30.11F
OAKES            N/A    N/A N/A N/A MISG        N/A
GWINNER        NOT AVBL
SHEYENNE NWR     N/A     79  60  52 SE7       29.95S
BUFFALO          N/A     77  55  45 N7          N/A
WYNDMERE         N/A    N/A N/A N/A W1          N/A
 ***** THE ABOVE OBSERVATIONS ARE NON NWS ARE NOT QUALITY
       CONTROLLED AND MAY MIS-REPORT RAIN FOR SNOW...
$$

  *****  WEATHER ACROSS NORTHERN MINNESOTA  *****

CITY           SKY/WX    TMP DP  RH WIND       PRES   REMARKS
FLAG ISLAND    SUNNY     72  52  49 N3        30.11F
WARROAD        SUNNY     72  57  60 E6        30.12S
ROSEAU         SUNNY     73  59  60 N5        30.11F
HALLOCK        SUNNY     73  54  49 N8        30.11F
THF RVR FALLS  MOSUNNY   74  56  53 NW10      30.12S
HALSTAD          N/A     81  59  47 N13         N/A
FOSSTON        MOSUNNY   77  59  53 N10       30.10S
BAUDETTE       SUNNY     75  57  53 N10       30.10F
WASKISH        SUNNY     77  57  50 W7        30.09S
CROOKSTON      SUNNY     75  57  53 N9        30.10F
$$
  *****  WEATHER ACROSS CENTRAL AND WEST MINNESOTA  *****

CITY           SKY/WX    TMP DP  RH WIND       PRES   REMARKS
BEMIDJI        MOSUNNY   75  55  50 VRB8      30.09S
PARK RAPIDS    MOSUNNY   80  52  37 NE8       30.07F
WADENA         MOSUNNY   75  61  60 NE6       30.06F
DETROIT LAKES  SUNNY     77  59  53 NW3       30.08F
MOORHEAD       MOSUNNY   75  63  64 N8        30.07F
FERGUS FALLS   CLOUDY    75  61  60 N9        30.07F
ELBOW LAKE     FAIR      76  58  53 CALM      30.07F
MORRIS MN      MOSUNNY   79  55  44 N3        30.07R
STAPLES        CLOUDY    73  55  53 E3        30.07F
WHEATON        MOSUNNY   79  61  53 W1        30.08F
$$
  *****  WEATHER ELSEWHERE ACROSS MINNESOTA  *****

CITY           SKY/WX    TMP DP  RH WIND       PRES   REMARKS
DULUTH         CLOUDY    70  51  51 E18       30.09F
INTRNTL FALLS  SUNNY     76  53  44 MISG      30.09S
ELY            SUNNY     75  48  38 CALM      30.08F
CLOQUET        CLOUDY    68  52  56 E8G16     30.08F
BRAINERD       CLOUDY    74  56  53 SE6       30.08S
HIBBING        MOSUNNY   74  54  49 N6        30.07F
ALEXANDRIA     MOSUNNY   76  56  49 E9        30.08F
SAINT CLOUD    PTSUNNY   75  58  55 NE12      30.05F
MINNEAPOLIS    CLOUDY    74  59  59 NE9G20    30.02S
$$

  *****  WEATHER ACROSS SOUTH DAKOTA  *****

CITY           SKY/WX    TMP DP  RH WIND       PRES   REMARKS
SIOUX FALLS    PTSUNNY   77  61  57 NE12      30.02F
BROOKINGS      MOSUNNY   75  58  55 E13       30.07S
WATERTOWN      SUNNY     78  57  48 NE10      30.08R
HURON          CLOUDY    81  59  47 N3        30.03F
SISSETON         N/A     78  59  51 E5        30.06F
ABERDEEN       MOSUNNY   76  62  62 E7        30.07S
MITCHELL       MOSUNNY   82  58  43 N10       30.03F
PIERRE         CLOUDY    80  56  43 E10       30.04F
MOBRIDGE       PTSUNNY   78  54  43 NE5       30.08F
RAPID CITY     CLOUDY    72  58  61 N6        30.13F
$$

  *****  SOME WEATHER IN NEARBY STATES *****

CITY           SKY/WX    TMP DP  RH WIND       PRES   REMARKS
GLASGOW MT     MOSUNNY   75  55  49 S5        30.14F
GREAT FALLS MT SUNNY     83  45  26 NE9       30.14F
CHEYENNE WY    SUNNY     73  55  53 E10       30.26S
SCOTTSBLUFF NE SUNNY     77  54  44 NE6       30.16F
OMAHA NE       MOSUNNY   85  65  51 N14       29.97F
DES MOINES IA  MOSUNNY   80  62  54 N14G22    29.97S
DAVENPORT IA   SUNNY     81  67  62 NW7       29.89F
CHICAGO IL     TSTM      74  72  93 NW13      29.92R FOG
EAU CLAIRE WI  CLOUDY    69  63  81 E14       29.99F
LA CROSSE WI   CLOUDY    67  63  87 N8        29.96R
$$

  *****  SOME NATIONAL WEATHER *****

CITY           SKY/WX    TMP DP  RH WIND       PRES   REMARKS
LA GUARDIA NY  CLOUDY    87  69  54 S15G23    29.84F HX  91
RALEIGH NC     MOSUNNY   96  72  45 SW12      29.83F HX 104
ATLANTA GA     CLOUDY    87  70  56 W17G28    29.99S HX  92
NEW ORLEANS LA PTSUNNY   93  75  55 S12       29.99F HX 104
OKLAHOMA CITY  MOSUNNY   93  70  46 VRB3      29.93F HX  99
ALBUQUERQUE NM CLOUDY    94  37  13 W5        30.15F
SALT LAKE CITY FAIR      99  34  10 NW6       30.06F HX  93
LOS ANGELES CA FAIR      77  64  64 W14       29.88F
BOISE ID       FAIR      97  41  14 NW12      30.02F HX  92
SEATTLE WA     FAIR      81  60  48 NW16      30.11F
$$

*** WEATHER ACROSS MANITOBA...SASKATCHEWAN AND ONTARIO ***
                ***ONTARIO***

CITY           SKY/WX    TMP DP  RH WIND       PRES   REMARKS
GERALDTON      MOSUNNY   70  52  52 NW8       30.09F
THUNDER BAY    MOSUNNY   75  54  46 VRB6      30.07F
SIOUX LOOKOUT  MOSUNNY   72  45  37 N6        30.12F
TORONTO        CLOUDY    84  59  42 SE10      29.87F
BIG TROUT LK   SUNNY     72  54  53 SW8       30.07S
PICKLE LAKE    MOSUNNY   72  46  40 VRB3      30.11F
DRYDEN         SUNNY     73  46  38 NE5       30.11F
KENORA         MOSUNNY   72  50  46 VRB2      30.12F
$$
                *** MANITOBA***

CITY           SKY/WX    TMP DP  RH WIND       PRES   REMARKS
BRANDON        MOSUNNY   75  54  46 NW3       30.14F
DAUPHIN        SUNNY     79  54  41 SW6       30.10S
ISLAND LAKE    MOSUNNY   77  50  38 S7        30.06F
PILOT MOUND      N/A     72  54  53 E2          N/A
THE PAS        MOSUNNY   81  61  50 W8        30.02F
THOMPSON       TSTM      72  64  78 NE2       30.01S
WINNIPEG       MOSUNNY   73  54  49 VRB5      30.13F
LYNN LAKE      PTSUNNY   77  55  47 MISG      30.03S
CHURCHILL      MOSUNNY   57  46  67 NE15G22   30.08S
GILLAM         PTSUNNY   72  63  73 NW8       30.01F
$$
                ***SASKATCHEWAN***

CITY           SKY/WX    TMP DP  RH WIND       PRES   REMARKS
ESTEVAN        MOSUNNY   73  52  46 CALM      30.15F
KINDERSLEY     PTSUNNY   79  59  50 S9G17     30.10F
LLOYDMINSTER   PTSUNNY   79  59  50 W8        30.07F
PRINCE ALBERT  PTSUNNY   82  59  44 S7        30.04F THUNDER
REGINA         PTSUNNY   77  52  41 E3        30.14F
YORKTON        SUNNY     77  54  44 SW6       30.13F   C1F1C2F2C3F3C4F4C5F5C6F6C7F7C8F8C9F9CaFaCbFbCcFcCdFdCe!


USA.gov is the U.S. government's official web portal to all federal, state and local government web resources and services.